KD2VWU Weather Reports


Display with metric or nautical units.
time (UTC)temp
F
wind
direction
speed
MPH
gust
MPH
rain 1hr
in
rain 24hr
in
rain mn
in
humidity
%
barometer
mb
20260831121735 64 39 0.0 0.0 0.00 0.00 0.00 99 1017.4
20260831121232 64 71 0.0 0.0 0.00 0.00 0.00 99 1017.5
20260831120726 64 28 0.0 1.0 0.00 0.00 0.00 99 1017.7
20260831120221 64 17 1.0 1.0 0.00 0.00 0.00 99 1017.5
20260831115717 64 52 0.0 0.0 0.00 0.00 0.00 99 1017.5
20260831115213 64 44 0.0 0.0 0.00 0.00 0.00 99 1017.5
20260831114712 64 44 0.0 0.0 0.00 0.00 0.00 99 1017.4
20260831114211 63 52 0.0 0.0 0.00 0.00 0.00 99 1017.6
20260831113707 63 15 0.0 1.0 0.00 0.00 0.00 99 1017.4
20260831113201 63 71 0.0 0.0 0.00 0.00 0.00 99 1017.1
20260831112701 63 73 0.0 0.0 0.00 0.00 0.00 99 1017.5
20260831112156 63 52 0.0 0.0 0.00 0.00 0.00 99 1017.3
20260831111652 63 70 0.0 0.0 0.00 0.00 0.00 99 1017.3
20260831111148 63 74 0.0 0.0 0.00 0.00 0.00 99 1017.1
20260831110643 62 71 0.0 0.0 0.00 0.00 0.00 99 1017.0
20260831110138 62 87 0.0 0.0 0.00 0.00 0.00 99 1016.9
20260831105637 62 86 0.0 0.0 0.00 0.00 0.00 99 1017.0
20260831105132 63 51 0.0 0.0 0.00 0.00 0.00 99 1017.0
20260831104628 63 26 0.0 0.0 0.00 0.00 0.00 99 1016.8
20260831104124 63 25 1.0 1.0 0.00 0.00 0.00 99 1016.8
20260831103619 63 46 0.0 0.0 0.00 0.00 0.00 99 1016.6
20260831103114 62 48 0.0 0.0 0.00 0.00 0.00 99 1016.7
20260831102609 63 85 0.0 0.0 0.00 0.00 0.00 99 1016.6
20260831102104 63 19 1.0 1.0 0.00 0.00 0.00 99 1016.7
20260831101603 63 52 0.0 0.0 0.00 0.00 0.00 99 1016.6
20260831101100 63 52 0.0 0.0 0.00 0.00 0.00 99 1016.4
20260831100556 63 71 0.0 0.0 0.00 0.00 0.00 99 1016.5
20260831100052 63 73 0.0 0.0 0.00 0.00 0.00 99 1016.4
20260831095549 63 71 0.0 0.0 0.00 0.00 0.00 99 1016.2
20260831095045 63 42 0.0 0.0 0.00 0.00 0.00 99 1016.5
20260831094541 63 14 1.0 2.0 0.00 0.00 0.00 99 1016.3
20260831094037 63 26 1.0 1.0 0.00 0.00 0.00 99 1016.3
20260831093537 63 31 0.0 1.0 0.00 0.00 0.00 99 1016.5
20260831093034 63 26 0.0 1.0 0.00 0.00 0.00 99 1016.2
20260831092529 63 30 1.0 1.0 0.00 0.00 0.00 99 1016.4
20260831092025 63 47 0.0 0.0 0.00 0.00 0.00 99 1016.4
20260831091519 63 26 1.0 1.0 0.00 0.00 0.00 99 1016.3
20260831091015 63 34 1.0 1.0 0.00 0.00 0.00 99 1016.4
20260831090510 64 17 1.0 1.0 0.00 0.00 0.00 99 1016.1
20260831090005 64 22 1.0 1.0 0.00 0.00 0.00 99 1016.3
20260831085500 64 35 1.0 1.0 0.00 0.00 0.00 99 1016.2
20260831084955 64 26 1.0 1.0 0.00 0.00 0.00 99 1016.2
20260831084451 64 55 0.0 0.0 0.00 0.00 0.00 99 1016.2
20260831083948 64 75 0.0 0.0 0.00 0.00 0.00 99 1016.4
20260831083442 64 64 0.0 0.0 0.00 0.00 0.00 99 1016.5
20260831082942 64 47 1.0 1.0 0.00 0.00 0.00 99 1016.2
20260831082443 64 49 1.0 1.0 0.00 0.00 0.00 99 1016.1
20260831081936 64 40 2.0 2.0 0.00 0.00 0.00 99 1016.2
20260831081433 64 67 0.0 0.0 0.00 0.00 0.00 99 1016.6
20260831080929 64 40 1.0 1.0 0.00 0.00 0.00 99 1016.6
20260831080423 65 50 0.0 0.0 0.00 0.00 0.00 99 1016.4
20260831075919 64 58 0.0 0.0 0.00 0.00 0.00 99 1016.3
20260831075414 64 70 0.0 0.0 0.00 0.00 0.00 99 1016.2
20260831074909 64 70 0.0 0.0 0.00 0.00 0.00 99 1016.3
20260831074409 64 76 0.0 0.0 0.00 0.00 0.00 99 1016.3
20260831073904 65 65 0.0 0.0 0.00 0.00 0.00 99 1016.1
20260831073403 65 59 0.0 0.0 0.00 0.00 0.00 99 1016.1
20260831072858 65 42 0.0 0.0 0.00 0.00 0.00 99 1016.1
20260831072353 65 42 0.0 0.0 0.00 0.00 0.00 99 1016.1
20260831071849 65 35 0.0 0.0 0.00 0.00 0.00 99 1016.0
20260831071349 65 85 0.0 0.0 0.00 0.00 0.00 99 1016.2
20260831070843 65 85 0.0 0.0 0.00 0.00 0.00 99 1016.2
20260831070343 65 93 0.0 0.0 0.00 0.00 0.00 99 1016.2
20260831065842 65 66 0.0 0.0 0.00 0.00 0.00 99 1016.4
20260831065340 65 66 0.0 0.0 0.00 0.00 0.00 99 1016.2
20260831064835 65 66 0.0 0.0 0.00 0.00 0.00 99 1016.2
20260831064330 65 66 0.0 0.0 0.00 0.00 0.00 99 1016.3
20260831063826 65 66 0.0 0.0 0.00 0.00 0.00 99 1016.3
20260831063326 65 74 0.0 0.0 0.00 0.00 0.00 99 1016.3
20260831062821 65 75 0.0 0.0 0.00 0.00 0.00 99 1016.0
20260831062316 65 86 0.0 0.0 0.00 0.00 0.00 99 1015.9
20260831061815 65 58 0.0 0.0 0.00 0.00 0.00 99 1016.1
20260831061314 65 66 0.0 0.0 0.00 0.00 0.00 99 1016.0
20260831060811 66 87 0.0 0.0 0.00 0.00 0.00 99 1016.0
20260831060310 66 66 0.0 0.0 0.00 0.00 0.00 99 1016.1
20260831055810 66 63 0.0 0.0 0.00 0.00 0.00 99 1016.3
20260831055306 66 26 0.0 0.0 0.00 0.00 0.00 99 1016.2
20260831054800 66 47 0.0 0.0 0.00 0.00 0.00 99 1016.1
20260831054255 66 58 0.0 0.0 0.00 0.00 0.00 99 1016.2
20260831053754 66 41 0.0 0.0 0.00 0.00 0.00 99 1016.2
20260831053253 66 47 0.0 0.0 0.00 0.00 0.00 99 1016.0
20260831052748 66 43 0.0 0.0 0.00 0.00 0.00 99 1016.0
20260831052247 66 44 0.0 0.0 0.00 0.00 0.00 99 1016.0
20260831051745 66 6 0.0 0.0 0.00 0.00 0.00 99 1015.9
20260831051244 67 40 0.0 0.0 0.00 0.00 0.00 99 1015.8
20260831050739 67 67 0.0 0.0 0.00 0.00 0.00 99 1016.1
20260831050238 67 67 0.0 0.0 0.00 0.00 0.00 99 1015.8
20260831045732 67 63 0.0 0.0 0.00 0.00 0.00 99 1015.6
20260831045227 68 97 0.0 0.0 0.00 0.00 0.00 99 1015.6
20260831044722 68 48 0.0 0.0 0.00 0.00 0.00 99 1015.9
20260831044217 68 66 0.0 0.0 0.00 0.00 0.00 99 1015.8
20260831043713 68 85 0.0 0.0 0.00 0.00 0.00 99 1015.8
20260831043208 68 81 0.0 0.0 0.00 0.00 0.00 99 1015.7
20260831042707 68 58 0.0 0.0 0.00 0.00 0.00 99 1015.7
20260831042202 68 27 0.0 0.0 0.00 0.00 0.00 99 1015.7
20260831041657 68 27 0.0 0.0 0.00 0.00 0.00 99 1015.6
20260831041156 68 5 0.0 0.0 0.00 0.00 0.00 99 1015.8
20260831040652 68 36 0.0 0.0 0.00 0.00 0.00 99 1015.8
20260831040150 68 42 0.0 0.0 0.00 0.00 0.00 99 1015.8
20260831035649 68 58 0.0 0.0 0.00 0.07 0.07 99 1015.8
20260831035144 68 59 0.0 0.0 0.00 0.07 0.07 99 1015.9
20260831034643 68 58 0.0 0.0 0.00 0.07 0.07 99 1015.9
20260831034138 69 59 0.0 0.0 0.00 0.07 0.07 99 1015.8
20260831033633 69 59 0.0 0.0 0.00 0.07 0.07 99 1015.8
20260831033128 69 65 0.0 0.0 0.00 0.07 0.07 99 1015.7
20260831032623 69 78 0.0 0.0 0.00 0.07 0.07 99 1015.8
20260831032119 69 93 0.0 0.0 0.00 0.07 0.07 99 1015.9
20260831031619 69 66 0.0 0.0 0.00 0.07 0.07 99 1015.7
20260831031118 69 81 0.0 0.0 0.00 0.07 0.07 99 1016.0
20260831030617 69 93 0.0 0.0 0.00 0.07 0.07 99 1015.9
20260831030116 69 85 0.0 0.0 0.00 0.07 0.07 99 1016.0
20260831025614 69 98 0.0 0.0 0.00 0.07 0.07 99 1016.0
20260831025110 69 87 0.0 0.0 0.00 0.07 0.07 99 1015.9
20260831024606 70 93 0.0 0.0 0.00 0.07 0.07 99 1016.3
20260831024104 70 82 0.0 0.0 0.00 0.07 0.07 99 1016.0
20260831023603 70 308 0.0 0.0 0.05 0.07 0.07 99 1016.3
20260831023103 70 133 0.0 0.0 0.05 0.07 0.07 99 1016.3
20260831022557 70 63 0.0 0.0 0.05 0.07 0.07 99 1016.6
20260831022052 70 101 0.0 0.0 0.00 0.06 0.06 99 1016.4
20260831021551 70 63 0.0 0.0 0.00 0.06 0.06 99 1016.4
20260831021047 70 209 0.0 0.0 0.00 0.06 0.06 99 1016.4
20260831020542 70 222 1.0 1.0 0.00 0.06 0.06 99 1016.4
20260831020037 70 228 1.0 2.0 0.00 0.06 0.06 99 1016.1
20260831015533 70 236 1.0 1.0 0.00 0.06 0.06 99 1016.2
20260831015027 70 227 1.0 1.0 0.00 0.06 0.06 99 1016.0
20260831014522 70 201 1.0 1.0 0.00 0.06 0.06 99 1016.1
20260831014018 70 193 1.0 1.0 0.00 0.06 0.06 99 1016.0
20260831013514 70 194 1.0 1.0 0.00 0.06 0.06 99 1015.9
20260831013014 70 193 1.0 1.0 0.00 0.06 0.06 99 1015.6
20260831012508 70 191 0.0 1.0 0.00 0.06 0.06 99 1015.7
20260831012003 70 188 1.0 1.0 0.00 0.06 0.06 99 1015.7
20260831011457 70 184 1.0 1.0 0.07 0.06 0.06 99 1015.6
20260831010953 70 192 1.0 1.0 0.07 0.06 0.06 99 1015.7
20260831010453 70 201 0.0 1.0 0.00 0.05 0.05 99 1015.8
20260831005949 70 124 0.0 0.0 0.00 0.05 0.05 99 1015.8
20260831005445 70 160 0.0 1.0 0.00 0.05 0.05 99 1015.8
20260831004944 71 219 1.0 1.0 0.05 0.05 0.05 99 1015.8
20260831004441 71 201 1.0 1.0 0.05 0.05 0.05 99 1015.6
20260831003936 71 216 1.0 1.0 0.07 0.04 0.04 99 1015.6
20260831003432 71 238 1.0 1.0 0.07 0.04 0.04 99 1015.5
20260831002932 71 215 1.0 1.0 0.07 0.03 0.03 99 1015.7
20260831002431 71 237 1.0 1.0 0.07 0.03 0.03 99 1015.7
20260831001926 71 218 1.0 1.0 0.05 0.02 0.02 99 1015.2
20260831001421 71 267 2.0 2.0 0.05 0.02 0.02 99 1015.5
20260831000919 71 223 1.0 1.0 0.00 0.01 0.01 99 1015.2
20260831000414 71 213 1.0 2.0 0.00 0.01 0.01 99 1015.1
20260830235912 71 208 1.0 1.0 0.00 0.01 0.01 99 1015.2
20260830235407 71 231 1.0 1.0 0.00 0.01 0.01 99 1015.1
20260830234903 71 211 0.0 1.0 0.07 0.01 0.01 99 1015.1
20260830234358 72 160 1.0 1.0 0.07 0.01 0.01 99 1015.1
20260830233854 72 220 1.0 1.0 0.00 0.00 0.00 98 1014.8
20260830233349 72 209 1.0 1.0 0.00 0.00 0.00 97 1014.8
20260830232844 72 204 1.0 1.0 0.00 0.00 0.00 97 1014.8
20260830232340 72 210 1.0 1.0 0.00 0.00 0.00 96 1015.1
20260830231836 72 148 0.0 0.0 0.00 0.00 0.00 96 1015.0
20260830231331 72 146 0.0 1.0 0.00 0.00 0.00 96 1014.9
20260830230830 72 222 1.0 1.0 0.00 0.00 0.00 96 1014.8
20260830230325 72 123 0.0 0.0 0.00 0.00 0.00 96 1014.7
20260830225820 72 105 0.0 0.0 0.00 0.00 0.00 95 1014.7
20260830225315 73 122 0.0 0.0 0.00 0.00 0.00 95 1014.9
20260830224814 73 105 0.0 0.0 0.00 0.00 0.00 95 1015.0
20260830224309 73 97 0.0 0.0 0.00 0.00 0.00 94 1014.6
20260830223806 73 100 0.0 0.0 0.00 0.00 0.00 94 1015.0
20260830223302 73 101 0.0 0.0 0.00 0.00 0.00 94 1014.9
20260830222755 73 94 0.0 0.0 0.00 0.00 0.00 93 1014.7
20260830222251 73 106 0.0 0.0 0.00 0.00 0.00 93 1014.9
20260830221746 73 108 0.0 0.0 0.00 0.00 0.00 93 1014.9
20260830221243 74 124 0.0 0.0 0.00 0.00 0.00 93 1014.9
20260830220738 74 152 0.0 1.0 0.00 0.00 0.00 92 1015.0
20260830220237 74 132 0.0 0.0 0.00 0.00 0.00 92 1014.9
20260830215735 74 178 0.0 1.0 0.00 0.00 0.00 91 1015.2
20260830215230 74 211 1.0 1.0 0.00 0.00 0.00 92 1015.1
20260830214726 74 240 1.0 1.0 0.00 0.00 0.00 91 1015.3
20260830214225 74 251 0.0 1.0 0.00 0.00 0.00 91 1014.9
20260830213724 74 205 0.0 1.0 0.00 0.00 0.00 90 1015.1
20260830213220 74 329 0.0 0.0 0.00 0.00 0.00 90 1014.9
20260830212716 74 212 0.0 1.0 0.00 0.00 0.00 89 1014.8
20260830212211 75 127 0.0 0.0 0.00 0.00 0.00 89 1014.8
20260830211706 75 227 1.0 1.0 0.00 0.00 0.00 89 1014.9
20260830211205 75 271 0.0 1.0 0.00 0.00 0.00 90 1014.9
20260830210701 75 275 1.0 1.0 0.00 0.00 0.00 88 1014.9
20260830210200 75 212 0.0 0.0 0.00 0.00 0.00 89 1015.0
20260830205658 75 113 0.0 1.0 0.00 0.00 0.00 87 1015.0
20260830205153 76 126 0.0 1.0 0.00 0.00 0.00 88 1015.3
20260830204652 75 135 0.0 0.0 0.00 0.00 0.00 87 1015.2
20260830204151 76 63 1.0 2.0 0.00 0.00 0.00 88 1015.4
20260830203648 76 235 2.0 2.0 0.00 0.00 0.00 87 1015.3
20260830203143 75 126 0.0 1.0 0.00 0.00 0.00 88 1015.7
20260830202642 75 196 1.0 1.0 0.00 0.00 0.00 88 1015.6
20260830202138 74 110 0.0 0.0 0.00 0.00 0.00 89 1015.5
20260830201638 74 115 0.0 0.0 0.00 0.00 0.00 90 1015.3
20260830201133 74 177 0.0 0.0 0.00 0.00 0.00 90 1015.5
20260830200628 74 110 0.0 0.0 0.00 0.00 0.00 90 1015.4
20260830200128 74 132 0.0 0.0 0.00 0.00 0.00 90 1015.5
20260830195623 74 32 0.0 0.0 0.00 0.00 0.00 88 1015.6
20260830195121 74 128 1.0 1.0 0.00 0.00 0.00 89 1015.4
20260830194620 74 179 1.0 1.0 0.00 0.00 0.00 89 1015.8
20260830194114 74 155 1.0 1.0 0.00 0.00 0.00 90 1015.8
20260830193609 74 244 2.0 2.0 0.00 0.00 0.00 88 1015.7
20260830193104 74 222 1.0 1.0 0.00 0.00 0.00 88 1015.6
20260830192559 74 216 2.0 2.0 0.00 0.00 0.00 87 1015.8
20260830192053 74 106 1.0 2.0 0.00 0.00 0.00 88 1015.8
20260830191548 74 225 1.0 1.0 0.00 0.00 0.00 86 1016.0
20260830191044 74 206 1.0 1.0 0.00 0.00 0.00 86 1016.2
20260830190539 74 182 1.0 2.0 0.00 0.00 0.00 85 1016.3
20260830190034 74 301 2.0 2.0 0.00 0.00 0.00 86 1016.2
20260830185528 75 113 0.0 1.0 0.00 0.00 0.00 84 1016.4
20260830185024 75 262 2.0 2.0 0.00 0.00 0.00 84 1016.4
20260830184522 75 263 2.0 2.0 0.00 0.00 0.00 82 1016.4
20260830184017 75 246 3.0 3.0 0.00 0.00 0.00 81 1016.3
20260830183517 76 222 3.0 5.0 0.00 0.00 0.00 81 1016.4
20260830183014 76 332 1.0 1.0 0.00 0.00 0.00 80 1016.5
20260830182509 75 291 1.0 2.0 0.00 0.00 0.00 79 1016.6
20260830182005 75 272 1.0 1.0 0.00 0.00 0.00 77 1016.7
20260830181501 75 290 1.0 1.0 0.00 0.00 0.00 78 1016.9
20260830181000 75 69 0.0 0.0 0.00 0.00 0.00 78 1016.9
20260830180454 75 204 2.0 3.0 0.00 0.00 0.00 75 1016.9
20260830175952 75 276 0.0 1.0 0.00 0.00 0.00 77 1016.9
20260830175447 76 344 2.0 5.0 0.00 0.00 0.00 74 1016.8
20260830174942 76 258 3.0 6.0 0.00 0.00 0.00 73 1016.9
20260830174438 78 242 3.0 3.0 0.00 0.00 0.00 70 1016.7
20260830173933 80 294 2.0 3.0 0.00 0.00 0.00 67 1016.8
20260830173428 79 355 0.0 1.0 0.00 0.00 0.00 69 1016.7
20260830172919 78 222 1.0 1.0 0.00 0.00 0.00 69 1017.0
20260830172415 77 246 2.0 2.0 0.00 0.00 0.00 68 1017.2
20260830171910 75 80 2.0 3.0 0.00 0.00 0.00 71 1017.0
20260830171405 75 243 1.0 2.0 0.00 0.00 0.00 70 1017.4
20260830170900 75 245 1.0 1.0 0.00 0.00 0.00 71 1017.5
20260830170400 76 259 2.0 2.0 0.00 0.00 0.00 69 1017.6
20260830165858 76 226 1.0 1.0 0.00 0.00 0.00 70 1017.5
20260830165354 76 310 0.0 1.0 0.00 0.00 0.00 69 1017.4
20260830164851 77 314 1.0 2.0 0.00 0.00 0.00 65 1017.4
20260830164346 77 276 2.0 2.0 0.00 0.00 0.00 71 1017.2
20260830163842 78 278 0.0 0.0 0.00 0.00 0.00 71 1017.2
20260830163338 78 227 1.0 1.0 0.00 0.00 0.00 71 1017.3
20260830162838 77 118 1.0 1.0 0.00 0.00 0.00 67 1017.5
20260830162334 77 246 1.0 1.0 0.00 0.00 0.00 67 1017.4
20260830161834 77 157 1.0 1.0 0.00 0.00 0.00 71 1017.5
20260830161333 76 256 3.0 3.0 0.00 0.00 0.00 70 1017.4
20260830160829 76 88 0.0 1.0 0.00 0.00 0.00 71 1017.7
20260830160324 75 258 1.0 2.0 0.00 0.00 0.00 68 1017.8
20260830155820 74 227 2.0 2.0 0.00 0.00 0.00 70 1018.0
20260830155316 74 354 2.0 2.0 0.00 0.00 0.00 71 1018.0
20260830154816 73 107 0.0 0.0 0.00 0.00 0.00 75 1018.0
20260830154312 73 77 1.0 2.0 0.00 0.00 0.00 69 1018.3
20260830153809 73 223 1.0 1.0 0.00 0.00 0.00 70 1018.4
20260830153304 72 224 0.0 1.0 0.00 0.00 0.00 73 1018.4
20260830152802 72 342 0.0 0.0 0.00 0.00 0.00 72 1018.4
20260830152257 72 120 0.0 1.0 0.00 0.00 0.00 72 1018.6
20260830151756 73 204 1.0 1.0 0.00 0.00 0.00 70 1018.7
20260830151256 73 307 0.0 0.0 0.00 0.00 0.00 69 1018.4
20260830150751 73 277 2.0 3.0 0.00 0.00 0.00 72 1018.6
20260830150251 73 118 2.0 2.0 0.00 0.00 0.00 71 1018.8
20260830145746 73 111 0.0 0.0 0.00 0.00 0.00 70 1018.7
20260830145241 74 319 2.0 3.0 0.00 0.00 0.00 76 1019.0
20260830144735 73 275 1.0 2.0 0.00 0.00 0.00 73 1019.0
20260830144232 73 202 0.0 0.0 0.00 0.00 0.00 76 1019.0
20260830143722 72 270 1.0 1.0 0.00 0.00 0.00 78 1018.9
20260830143220 72 94 1.0 1.0 0.00 0.00 0.00 77 1018.9
20260830142716 72 74 1.0 2.0 0.00 0.00 0.00 74 1018.7
20260830142210 71 221 1.0 1.0 0.00 0.00 0.00 78 1018.9
20260830141705 71 118 0.0 0.0 0.00 0.00 0.00 80 1018.8
20260830141201 71 90 0.0 1.0 0.00 0.00 0.00 78 1018.6
20260830140655 70 169 1.0 1.0 0.00 0.00 0.00 80 1018.9
20260830140150 69 255 1.0 1.0 0.00 0.00 0.00 82 1018.7
20260830135646 69 95 0.0 0.0 0.00 0.00 0.00 83 1018.8
20260830135141 68 256 2.0 2.0 0.00 0.00 0.00 86 1018.8
20260830134636 68 99 0.0 0.0 0.00 0.00 0.00 87 1018.7
20260830134131 67 133 0.0 0.0 0.00 0.00 0.00 91 1018.9
20260830133622 66 140 0.0 0.0 0.00 0.00 0.00 91 1019.1
20260830133116 66 173 1.0 1.0 0.00 0.00 0.00 91 1019.1
20260830132612 65 75 0.0 0.0 0.00 0.00 0.00 92 1019.1
20260830132108 66 90 0.0 0.0 0.00 0.00 0.00 93 1019.2
20260830131607 65 125 0.0 0.0 0.00 0.00 0.00 93 1019.0
20260830131102 65 198 1.0 1.0 0.00 0.00 0.00 95 1019.2
20260830130556 65 75 0.0 0.0 0.00 0.00 0.00 96 1019.4
20260830130051 64 103 0.0 0.0 0.00 0.00 0.00 98 1019.2
20260830125546 63 287 1.0 1.0 0.00 0.00 0.00 99 1019.3
20260830125045 0 0.0 0.0 0.00 0.00 0.00 1019.4
20260830124544 0 0.0 0.0 0.00 0.00 0.00 1019.4
20260830124040 0 0.0 0.0 0.00 0.00 0.00 1019.6
20260830123537 0 0.0 0.0 0.00 0.00 0.00 1019.5
20260830123032 61 66 0.0 0.0 0.00 0.00 0.00 99 1019.3
20260830122528 61 66 0.0 0.0 0.00 0.00 0.00 99 1019.3
20260830122024 61 66 0.0 0.0 0.00 0.00 0.00 99 1019.4